Time,TemperatureF,DewpointF,PressureIn,WindDirection,WindDirectionDegrees,WindSpeedMPH,WindSpeedGustMPH,Humidity,HourlyPrecipIn,Conditions,Clouds,dailyrainin,SoftwareType,DateUTC
2013-10-31 00:00:00,49.0,44.1,30.11,ESE,113,1.0,15.0,83,0.00,,,0.00,Weather View 32 v70,2013-10-31 07:00:00,
2013-10-31 00:10:00,49.0,43.7,30.11,South,178,6.0,15.0,82,0.00,,,0.00,Weather View 32 v70,2013-10-31 07:10:00,
2013-10-31 00:20:00,49.0,43.7,30.11,ESE,103,2.0,15.0,82,0.00,,,0.00,Weather View 32 v70,2013-10-31 07:20:00,
2013-10-31 00:30:00,49.0,44.1,30.10,SSE,162,4.0,15.0,83,0.00,,,0.00,Weather View 32 v70,2013-10-31 07:30:00,
2013-10-31 00:40:00,49.0,44.1,30.11,SW,216,0.0,15.0,83,0.00,,,0.00,Weather View 32 v70,2013-10-31 07:40:00,
2013-10-31 00:50:00,49.0,44.4,30.10,ESE,113,3.0,15.0,84,0.00,,,0.00,Weather View 32 v70,2013-10-31 07:50:00,
2013-10-31 01:00:00,49.0,44.4,30.10,SE,146,1.0,15.0,84,0.00,,,0.00,Weather View 32 v70,2013-10-31 08:00:00,
2013-10-31 01:10:00,49.0,44.4,30.09,SE,134,1.0,15.0,84,0.00,,,0.00,Weather View 32 v70,2013-10-31 08:10:00,
2013-10-31 01:20:00,49.0,44.4,30.10,SE,124,3.0,15.0,84,0.00,,,0.00,Weather View 32 v70,2013-10-31 08:20:00,
2013-10-31 01:30:00,49.0,44.4,30.10,ENE,73,0.0,15.0,84,0.00,,,0.00,Weather View 32 v70,2013-10-31 08:30:00,
2013-10-31 01:40:00,49.0,44.4,30.11,SSE,160,3.0,13.0,84,0.00,,,0.00,Weather View 32 v70,2013-10-31 08:40:00,
2013-10-31 01:50:00,49.0,44.4,30.11,SE,140,1.0,13.0,84,0.00,,,0.00,Weather View 32 v70,2013-10-31 08:50:00,
2013-10-31 02:00:00,49.0,44.7,30.10,SSE,152,5.0,13.0,85,0.00,,,0.00,Weather View 32 v70,2013-10-31 09:00:00,
2013-10-31 02:10:00,49.0,44.4,30.11,SSE,167,3.0,13.0,84,0.00,,,0.00,Weather View 32 v70,2013-10-31 09:10:00,
2013-10-31 02:20:00,49.0,44.7,30.11,SE,134,4.0,11.0,85,0.00,,,0.00,Weather View 32 v70,2013-10-31 09:20:00,
2013-10-31 02:30:00,49.0,44.4,30.10,SW,214,2.0,11.0,84,0.00,,,0.00,Weather View 32 v70,2013-10-31 09:30:00,
2013-10-31 02:40:00,49.0,44.7,30.10,SSW,213,0.0,12.0,85,0.00,,,0.00,Weather View 32 v70,2013-10-31 09:40:00,
2013-10-31 02:50:00,49.0,44.7,30.11,SE,146,0.0,12.0,85,0.00,,,0.00,Weather View 32 v70,2013-10-31 09:50:00,
2013-10-31 03:00:00,49.0,44.7,30.11,SE,138,1.0,12.0,85,0.00,,,0.00,Weather View 32 v70,2013-10-31 10:00:00,
2013-10-31 03:10:00,49.0,44.7,30.10,East,86,2.0,12.0,85,0.00,,,0.00,Weather View 32 v70,2013-10-31 10:10:00,
2013-10-31 03:20:00,49.0,44.7,30.10,ENE,69,0.0,12.0,85,0.00,,,0.00,Weather View 32 v70,2013-10-31 10:20:00,
2013-10-31 03:30:00,49.0,45.0,30.10,SSW,204,3.0,12.0,86,0.00,,,0.00,Weather View 32 v70,2013-10-31 10:30:00,
2013-10-31 03:40:00,49.0,45.0,30.10,ESE,115,0.0,11.0,86,0.00,,,0.00,Weather View 32 v70,2013-10-31 10:40:00,
2013-10-31 03:50:00,49.0,45.0,30.10,SE,134,0.0,11.0,86,0.00,,,0.00,Weather View 32 v70,2013-10-31 10:50:00,
2013-10-31 04:00:00,48.0,44.3,30.10,SSE,159,5.0,11.0,87,0.00,,,0.00,Weather View 32 v70,2013-10-31 11:00:00,
2013-10-31 04:10:00,48.0,44.6,30.10,WSW,252,0.0,12.0,88,0.00,,,0.00,Weather View 32 v70,2013-10-31 11:10:00,
2013-10-31 04:20:00,48.0,44.9,30.10,ENE,57,3.0,12.0,89,0.00,,,0.00,Weather View 32 v70,2013-10-31 11:20:00,
2013-10-31 04:30:00,48.0,44.9,30.10,SE,134,3.0,12.0,89,0.00,,,0.00,Weather View 32 v70,2013-10-31 11:30:00,
2013-10-31 04:40:00,48.0,45.2,30.10,SSE,154,6.0,12.0,90,0.00,,,0.00,Weather View 32 v70,2013-10-31 11:40:00,
2013-10-31 04:50:00,48.0,45.2,30.09,South,181,1.0,12.0,90,0.00,,,0.00,Weather View 32 v70,2013-10-31 11:50:00,
2013-10-31 05:00:00,48.0,45.5,30.09,SE,128,0.0,12.0,91,0.00,,,0.00,Weather View 32 v70,2013-10-31 12:00:00,
2013-10-31 05:10:00,48.0,45.8,30.09,ESE,106,4.0,11.0,92,0.00,,,0.00,Weather View 32 v70,2013-10-31 12:10:00,
2013-10-31 05:20:00,48.0,46.1,30.10,SE,140,0.0,9.0,93,0.00,,,0.00,Weather View 32 v70,2013-10-31 12:20:00,
2013-10-31 05:30:00,48.0,46.1,30.10,SSE,167,2.0,9.0,93,0.00,,,0.00,Weather View 32 v70,2013-10-31 12:30:00,
2013-10-31 05:40:00,48.0,46.4,30.10,SE,134,4.0,9.0,94,0.00,,,0.00,Weather View 32 v70,2013-10-31 12:40:00,
2013-10-31 05:50:00,48.0,46.4,30.10,ESE,121,0.0,9.0,94,0.00,,,0.00,Weather View 32 v70,2013-10-31 12:50:00,
2013-10-31 06:00:00,48.0,46.6,30.10,South,183,1.0,10.0,95,0.00,,,0.00,Weather View 32 v70,2013-10-31 13:00:00,
2013-10-31 06:10:00,48.0,46.6,30.10,SSE,157,2.0,11.0,95,0.00,,,0.00,Weather View 32 v70,2013-10-31 13:10:00,
2013-10-31 06:20:00,48.0,46.6,30.10,SE,138,0.0,11.0,95,0.00,,,0.00,Weather View 32 v70,2013-10-31 13:20:00,
2013-10-31 06:30:00,48.0,46.6,30.10,ESE,113,10.0,14.0,95,0.00,,,0.00,Weather View 32 v70,2013-10-31 13:30:00,
2013-10-31 06:40:00,48.0,46.6,30.10,South,171,2.0,14.0,95,0.00,,,0.00,Weather View 32 v70,2013-10-31 13:40:00,
2013-10-31 06:50:00,48.0,46.6,30.10,SSE,155,2.0,14.0,95,0.00,,,0.00,Weather View 32 v70,2013-10-31 13:50:00,
2013-10-31 07:00:00,48.0,46.6,30.10,SSW,196,0.0,14.0,95,0.00,,,0.00,Weather View 32 v70,2013-10-31 14:00:00,
2013-10-31 07:10:00,48.0,46.6,30.10,SE,142,3.0,14.0,95,0.00,,,0.00,Weather View 32 v70,2013-10-31 14:10:00,
2013-10-31 07:20:00,48.0,46.6,30.11,SE,143,4.0,17.0,95,0.00,,,0.00,Weather View 32 v70,2013-10-31 14:20:00,
2013-10-31 07:30:00,48.0,46.6,30.11,SSW,203,2.0,17.0,95,0.00,,,0.00,Weather View 32 v70,2013-10-31 14:30:00,
2013-10-31 07:40:00,49.0,47.6,30.11,SSE,165,3.0,17.0,95,0.00,,,0.00,Weather View 32 v70,2013-10-31 14:40:00,
2013-10-31 07:50:00,49.0,47.6,30.11,SSE,157,0.0,17.0,95,0.00,,,0.00,Weather View 32 v70,2013-10-31 14:50:00,
2013-10-31 08:00:00,49.0,47.6,30.11,SSW,195,3.0,17.0,95,0.00,,,0.00,Weather View 32 v70,2013-10-31 15:00:00,
2013-10-31 08:10:00,49.0,47.6,30.12,South,182,3.0,17.0,95,0.00,,,0.00,Weather View 32 v70,2013-10-31 15:10:00,
2013-10-31 08:15:00,49.0,47.6,30.12,South,182,3.0,17.0,95,0.00,,,0.00,Weather View 32 v70,2013-10-31 15:15:00,
2013-10-31 08:30:00,49.0,47.6,30.12,SSE,161,3.0,12.0,95,0.00,,,0.00,Weather View 32 v70,2013-10-31 15:30:00,
2013-10-31 08:40:00,49.0,47.9,30.12,South,177,9.0,12.0,96,0.00,,,0.00,Weather View 32 v70,2013-10-31 15:40:00,
2013-10-31 08:50:00,49.0,47.9,30.13,SW,224,7.0,11.0,96,0.00,,,0.00,Weather View 32 v70,2013-10-31 15:50:00,
2013-10-31 09:00:00,49.0,47.9,30.13,West,268,4.0,11.0,96,0.00,,,0.00,Weather View 32 v70,2013-10-31 16:00:00,
2013-10-31 09:10:00,49.0,47.9,30.13,SSW,201,1.0,11.0,96,0.00,,,0.00,Weather View 32 v70,2013-10-31 16:10:00,
2013-10-31 09:15:00,49.0,47.9,30.13,SSW,201,1.0,11.0,96,0.00,,,0.00,Weather View 32 v70,2013-10-31 16:15:00,
2013-10-31 09:30:00,49.0,47.9,30.14,SW,233,3.0,11.0,96,0.00,,,0.00,Weather View 32 v70,2013-10-31 16:30:00,
2013-10-31 09:40:00,49.0,47.9,30.14,SE,145,0.0,11.0,96,0.00,,,0.00,Weather View 32 v70,2013-10-31 16:40:00,
2013-10-31 09:50:00,49.0,47.9,30.14,WSW,238,3.0,11.0,96,0.00,,,0.00,Weather View 32 v70,2013-10-31 16:50:00,
2013-10-31 10:00:00,49.0,48.2,30.15,South,182,3.0,10.0,97,0.00,,,0.00,Weather View 32 v70,2013-10-31 17:00:00,
2013-10-31 10:10:00,49.0,48.2,30.15,SE,138,3.0,10.0,97,0.00,,,0.00,Weather View 32 v70,2013-10-31 17:10:00,
2013-10-31 10:16:00,49.0,48.2,30.15,SE,138,3.0,10.0,97,0.00,,,0.00,Weather View 32 v70,2013-10-31 17:16:00,
2013-10-31 10:30:00,49.0,48.2,30.15,South,188,4.0,11.0,97,0.00,,,0.00,Weather View 32 v70,2013-10-31 17:30:00,
2013-10-31 10:40:00,49.0,48.2,30.15,SW,223,5.0,11.0,97,0.00,,,0.00,Weather View 32 v70,2013-10-31 17:40:00,
2013-10-31 10:50:00,49.0,48.2,30.15,South,181,6.0,11.0,97,0.00,,,0.00,Weather View 32 v70,2013-10-31 17:50:00,
2013-10-31 11:00:00,50.0,49.2,30.16,SSE,162,2.0,11.0,97,0.00,,,0.00,Weather View 32 v70,2013-10-31 18:00:00,
2013-10-31 11:10:00,50.0,49.2,30.16,SSE,161,4.0,11.0,97,0.00,,,0.00,Weather View 32 v70,2013-10-31 18:10:00,
2013-10-31 11:16:00,50.0,49.2,30.16,SSE,161,4.0,11.0,97,0.00,,,0.00,Weather View 32 v70,2013-10-31 18:16:00,
2013-10-31 11:30:00,50.0,49.2,30.17,South,175,0.0,12.0,97,0.00,,,0.00,Weather View 32 v70,2013-10-31 18:30:00,
2013-10-31 11:40:00,50.0,49.2,30.17,South,186,3.0,12.0,97,0.00,,,0.00,Weather View 32 v70,2013-10-31 18:40:00,
2013-10-31 11:50:00,50.0,49.2,30.17,SSW,196,3.0,13.0,97,0.00,,,0.00,Weather View 32 v70,2013-10-31 18:50:00,
2013-10-31 12:00:00,50.0,49.2,30.17,SE,142,4.0,13.0,97,0.00,,,0.00,Weather View 32 v70,2013-10-31 19:00:00,
2013-10-31 12:10:00,50.0,49.2,30.17,SW,227,4.0,13.0,97,0.00,,,0.00,Weather View 32 v70,2013-10-31 19:10:00,
2013-10-31 12:17:00,50.0,49.2,30.17,SW,227,4.0,13.0,97,0.00,,,0.00,Weather View 32 v70,2013-10-31 19:17:00,
2013-10-31 12:30:00,50.0,49.2,30.17,SSW,209,3.0,14.0,97,0.00,,,0.00,Weather View 32 v70,2013-10-31 19:30:00,
2013-10-31 12:40:00,51.0,50.2,30.17,SSW,196,10.0,14.0,97,0.00,,,0.00,Weather View 32 v70,2013-10-31 19:40:00,
2013-10-31 12:50:00,51.0,50.2,30.18,SSW,208,5.0,14.0,97,0.00,,,0.00,Weather View 32 v70,2013-10-31 19:50:00,
2013-10-31 13:00:00,51.0,50.2,30.18,SSE,161,3.0,14.0,97,0.00,,,0.00,Weather View 32 v70,2013-10-31 20:00:00,
2013-10-31 13:10:00,51.0,50.2,30.18,SE,134,1.0,14.0,97,0.00,,,0.00,Weather View 32 v70,2013-10-31 20:10:00,
2013-10-31 13:17:00,51.0,50.2,30.18,SE,134,1.0,14.0,97,0.00,,,0.00,Weather View 32 v70,2013-10-31 20:17:00,
2013-10-31 13:30:00,51.0,50.2,30.18,South,184,6.0,13.0,97,0.00,,,0.00,Weather View 32 v70,2013-10-31 20:30:00,
2013-10-31 13:40:00,51.0,50.2,30.18,SSE,149,4.0,13.0,97,0.00,,,0.00,Weather View 32 v70,2013-10-31 20:40:00,
2013-10-31 13:50:00,51.0,50.5,30.18,SSE,162,12.0,13.0,98,0.00,,,0.00,Weather View 32 v70,2013-10-31 20:50:00,
2013-10-31 14:00:00,52.0,51.2,30.18,East,101,2.0,13.0,97,0.00,,,0.00,Weather View 32 v70,2013-10-31 21:00:00,
2013-10-31 14:10:00,52.0,51.5,30.19,SSW,192,2.0,13.0,98,0.00,,,0.00,Weather View 32 v70,2013-10-31 21:10:00,
2013-10-31 14:18:00,52.0,51.5,30.19,SSW,192,2.0,13.0,98,0.00,,,0.00,Weather View 32 v70,2013-10-31 21:18:00,
2013-10-31 14:30:00,52.0,51.2,30.19,SSW,202,4.0,13.0,97,0.00,,,0.00,Weather View 32 v70,2013-10-31 21:30:00,
2013-10-31 14:40:00,52.0,51.2,30.19,SSW,209,3.0,13.0,97,0.00,,,0.00,Weather View 32 v70,2013-10-31 21:40:00,
2013-10-31 14:50:00,52.0,51.2,30.20,SW,219,1.0,12.0,97,0.00,,,0.00,Weather View 32 v70,2013-10-31 21:50:00,
2013-10-31 15:00:00,52.0,51.2,30.20,WSW,239,5.0,10.0,97,0.00,,,0.00,Weather View 32 v70,2013-10-31 22:00:00,
2013-10-31 15:10:00,52.0,51.2,30.20,SSE,155,0.0,10.0,97,0.00,,,0.00,Weather View 32 v70,2013-10-31 22:10:00,
2013-10-31 15:19:00,52.0,51.2,30.20,SSE,155,0.0,10.0,97,0.00,,,0.00,Weather View 32 v70,2013-10-31 22:19:00,
2013-10-31 15:30:00,52.0,51.2,30.20,South,189,3.0,10.0,97,0.00,,,0.00,Weather View 32 v70,2013-10-31 22:30:00,
2013-10-31 15:40:00,53.0,52.2,30.20,SSE,166,4.0,14.0,97,0.00,,,0.00,Weather View 32 v70,2013-10-31 22:40:00,
2013-10-31 15:50:00,53.0,51.9,30.20,SSE,152,6.0,14.0,96,0.00,,,0.00,Weather View 32 v70,2013-10-31 22:50:00,
2013-10-31 16:00:00,53.0,51.9,30.20,South,173,4.0,14.0,96,0.00,,,0.00,Weather View 32 v70,2013-10-31 23:00:00,
2013-10-31 16:10:00,53.0,51.9,30.21,SE,126,3.0,14.0,96,0.00,,,0.00,Weather View 32 v70,2013-10-31 23:10:00,
2013-10-31 16:19:00,53.0,51.9,30.21,SE,126,3.0,14.0,96,0.00,,,0.00,Weather View 32 v70,2013-10-31 23:19:00,
2013-10-31 16:30:00,53.0,51.9,30.21,South,170,3.0,14.0,96,0.00,,,0.00,Weather View 32 v70,2013-10-31 23:30:00,
2013-10-31 16:40:00,53.0,51.9,30.21,SE,126,2.0,12.0,96,0.00,,,0.00,Weather View 32 v70,2013-10-31 23:40:00,
2013-10-31 16:50:00,53.0,51.6,30.21,SSW,200,0.0,10.0,95,0.00,,,0.00,Weather View 32 v70,2013-10-31 23:50:00,
2013-10-31 17:00:00,53.0,51.6,30.21,SE,143,0.0,6.0,95,0.00,,,0.00,Weather View 32 v70,2013-11-01 00:00:00,
2013-10-31 17:10:00,53.0,51.6,30.21,SE,143,0.0,6.0,95,0.00,,,0.00,Weather View 32 v70,2013-11-01 00:10:00,
2013-10-31 17:20:00,53.0,51.6,30.21,SE,143,0.0,6.0,95,0.00,,,0.00,Weather View 32 v70,2013-11-01 00:20:00,
2013-10-31 17:30:00,53.0,51.6,30.21,SE,143,0.0,4.0,95,0.00,,,0.00,Weather View 32 v70,2013-11-01 00:30:00,
2013-10-31 17:40:00,53.0,51.6,30.21,SE,143,0.0,4.0,95,0.00,,,0.00,Weather View 32 v70,2013-11-01 00:40:00,
2013-10-31 17:50:00,53.0,51.6,30.21,SE,144,0.0,3.0,95,0.00,,,0.00,Weather View 32 v70,2013-11-01 00:50:00,
2013-10-31 18:00:00,53.0,51.6,30.21,SE,144,0.0,3.0,95,0.00,,,0.00,Weather View 32 v70,2013-11-01 01:00:00,
2013-10-31 18:10:00,53.0,51.6,30.21,SE,144,1.0,3.0,95,0.00,,,0.00,Weather View 32 v70,2013-11-01 01:10:00,
2013-10-31 18:20:00,53.0,51.6,30.21,SE,144,0.0,3.0,95,0.00,,,0.00,Weather View 32 v70,2013-11-01 01:20:00,
2013-10-31 18:30:00,53.0,51.6,30.21,SSE,147,0.0,4.0,95,0.00,,,0.00,Weather View 32 v70,2013-11-01 01:30:00,
2013-10-31 18:40:00,52.0,50.6,30.21,SSE,159,0.0,4.0,95,0.00,,,0.00,Weather View 32 v70,2013-11-01 01:40:00,
2013-10-31 18:50:00,52.0,50.6,30.21,South,183,0.0,4.0,95,0.00,,,0.00,Weather View 32 v70,2013-11-01 01:50:00,
2013-10-31 19:00:00,52.0,50.6,30.22,South,173,3.0,4.0,95,0.00,,,0.00,Weather View 32 v70,2013-11-01 02:00:00,
2013-10-31 19:10:00,52.0,50.6,30.23,South,173,0.0,4.0,95,0.00,,,0.00,Weather View 32 v70,2013-11-01 02:10:00,
2013-10-31 19:20:00,52.0,50.6,30.23,South,173,0.0,4.0,95,0.00,,,0.00,Weather View 32 v70,2013-11-01 02:20:00,
2013-10-31 19:30:00,52.0,50.6,30.23,South,173,0.0,4.0,95,0.00,,,0.00,Weather View 32 v70,2013-11-01 02:30:00,
2013-10-31 19:40:00,52.0,50.6,30.24,South,173,0.0,4.0,95,0.00,,,0.00,Weather View 32 v70,2013-11-01 02:40:00,
2013-10-31 19:50:00,52.0,50.6,30.24,South,173,0.0,3.0,95,0.00,,,0.00,Weather View 32 v70,2013-11-01 02:50:00,
2013-10-31 20:00:00,52.0,50.6,30.23,South,173,0.0,3.0,95,0.00,,,0.00,Weather View 32 v70,2013-11-01 03:00:00,
2013-10-31 20:10:00,52.0,50.6,30.24,South,173,0.0,2.0,95,0.00,,,0.00,Weather View 32 v70,2013-11-01 03:10:00,
2013-10-31 20:20:00,52.0,50.6,30.24,South,173,0.0,2.0,95,0.00,,,0.00,Weather View 32 v70,2013-11-01 03:20:00,
2013-10-31 20:30:00,52.0,50.6,30.24,South,173,0.0,2.0,95,0.00,,,0.00,Weather View 32 v70,2013-11-01 03:30:00,
2013-10-31 20:40:00,52.0,50.6,30.24,South,173,0.0,2.0,95,0.00,,,0.00,Weather View 32 v70,2013-11-01 03:40:00,
2013-10-31 20:50:00,52.0,50.9,30.24,South,173,0.0,2.0,96,0.00,,,0.00,Weather View 32 v70,2013-11-01 03:50:00,
2013-10-31 21:00:00,52.0,50.9,30.24,South,173,0.0,2.0,96,0.00,,,0.00,Weather View 32 v70,2013-11-01 04:00:00,
2013-10-31 21:10:00,52.0,50.9,30.24,South,173,0.0,2.0,96,0.00,,,0.00,Weather View 32 v70,2013-11-01 04:10:00,
2013-10-31 21:20:00,52.0,50.9,30.25,South,173,1.0,2.0,96,0.00,,,0.00,Weather View 32 v70,2013-11-01 04:20:00,
2013-10-31 21:22:00,52.0,50.9,30.25,South,173,1.0,2.0,96,0.00,,,0.00,Weather View 32 v70,2013-11-01 04:22:00,
2013-10-31 21:30:00,52.0,50.9,30.25,ESE,104,1.0,3.0,96,0.00,,,0.00,Weather View 32 v70,2013-11-01 04:30:00,
2013-10-31 21:40:00,52.0,50.9,30.24,ESE,102,2.0,4.0,96,0.00,,,0.00,Weather View 32 v70,2013-11-01 04:40:00,
2013-10-31 21:50:00,52.0,50.9,30.24,ENE,78,2.0,4.0,96,0.00,,,0.00,Weather View 32 v70,2013-11-01 04:50:00,
2013-10-31 22:00:00,52.0,50.9,30.25,ESE,105,1.0,4.0,96,0.00,,,0.00,Weather View 32 v70,2013-11-01 05:00:00,
2013-10-31 22:10:00,52.0,50.9,30.25,ESE,105,0.0,4.0,96,0.00,,,0.00,Weather View 32 v70,2013-11-01 05:10:00,
2013-10-31 22:20:00,52.0,50.9,30.25,ESE,105,1.0,4.0,96,0.00,,,0.00,Weather View 32 v70,2013-11-01 05:20:00,
2013-10-31 22:30:00,52.0,52.0,30.25,ESE,105,2.0,4.0,100,0.00,,,0.00,Weather View 32 v70,2013-11-01 05:30:00,
2013-10-31 22:40:00,52.0,51.2,30.25,South,169,1.0,4.0,97,0.00,,,0.00,Weather View 32 v70,2013-11-01 05:40:00,
2013-10-31 22:50:00,52.0,51.2,30.26,South,169,0.0,4.0,97,0.00,,,0.00,Weather View 32 v70,2013-11-01 05:50:00,
2013-10-31 23:00:00,52.0,51.2,30.26,South,169,2.0,4.0,97,0.00,,,0.00,Weather View 32 v70,2013-11-01 06:00:00,
2013-10-31 23:10:00,52.0,51.2,30.26,South,169,1.0,4.0,97,0.00,,,0.00,Weather View 32 v70,2013-11-01 06:10:00,
2013-10-31 23:20:00,53.0,52.2,30.25,SSE,154,0.0,4.0,97,0.00,,,0.00,Weather View 32 v70,2013-11-01 06:20:00,
2013-10-31 23:30:00,53.0,52.2,30.25,SSE,157,4.0,6.0,97,0.00,,,0.00,Weather View 32 v70,2013-11-01 06:30:00,
2013-10-31 23:40:00,53.0,52.2,30.25,SSE,159,2.0,6.0,97,0.00,,,0.00,Weather View 32 v70,2013-11-01 06:40:00,
2013-10-31 23:50:00,53.0,52.2,30.25,SSE,157,1.0,6.0,97,0.00,,,0.00,Weather View 32 v70,2013-11-01 06:50:00,